Location: Saleratus Ranch
(37.7914°N, 109.6108°W)
Time: 23:46:10
(UTC-07:00)

Tiangong 1 - Visible Passes

Search period start: 20 January 2018 00:00
Search period end: 30 January 2018 00:00
Orbit: 262 x 287 km, 42.8° (Epoch: 20 January)

Date Brightness Start Highest point End Pass type
(mag) Time Alt. Az. Time Alt. Az. Time Alt. Az.
20 Jan 2.1 19:00:29 10° WNW 19:01:58 28° NW 19:01:58 28° NW visible
21 Jan 1.4 18:59:53 10° WNW 19:01:42 42° NW 19:01:42 42° NW visible
22 Jan 0.9 18:59:11 10° WNW 19:01:25 59° WSW 19:01:25 59° WSW visible
23 Jan 1.9 18:58:28 10° W 19:00:42 32° SSW 19:01:11 29° S visible
24 Jan 3.2 18:57:52 10° W 18:59:36 17° SW 19:01:02 12° S visible
